TimeCDT,TemperatureF,Dew PointF,Humidity,Sea Level PressureIn,VisibilityMPH,Wind Direction,Wind SpeedMPH,Gust SpeedMPH,PrecipitationIn,Events,Conditions,WindDirDegrees,DateUTC
12:15 AM,70.3,53.6,55,30.13,10.0,SE,4.6,-,N/A,,Clear,140,2013-09-04 05:15:00
12:35 AM,70.0,55.4,60,30.13,10.0,SSE,5.8,-,N/A,,Clear,150,2013-09-04 05:35:00
12:55 AM,70.0,56.5,62,30.13,10.0,Calm,Calm,-,N/A,,Clear,0,2013-09-04 05:55:00
1:15 AM,70.0,55.6,60,30.13,10.0,Calm,Calm,-,N/A,,Clear,0,2013-09-04 06:15:00
1:35 AM,70.0,55.6,60,30.14,10.0,Calm,Calm,-,N/A,,Clear,0,2013-09-04 06:35:00
1:55 AM,67.5,54.7,64,30.14,10.0,SSE,3.5,-,N/A,,Clear,160,2013-09-04 06:55:00
2:15 AM,67.5,54.7,64,30.15,10.0,Calm,Calm,-,N/A,,Clear,0,2013-09-04 07:15:00
2:35 AM,64.9,54.0,68,30.14,10.0,South,5.8,-,N/A,,Clear,170,2013-09-04 07:35:00
2:55 AM,63.3,53.6,71,30.15,10.0,SSE,3.5,-,N/A,,Clear,160,2013-09-04 07:55:00
3:15 AM,64.9,54.0,68,30.15,10.0,SE,3.5,-,N/A,,Clear,140,2013-09-04 08:15:00
3:35 AM,64.9,54.1,68,30.15,10.0,Calm,Calm,-,N/A,,Clear,0,2013-09-04 08:35:00
3:55 AM,63.9,53.2,68,30.15,10.0,Calm,Calm,-,N/A,,Clear,0,2013-09-04 08:55:00
4:15 AM,64.0,53.2,68,30.15,10.0,Calm,Calm,-,N/A,,Clear,0,2013-09-04 09:15:00
4:35 AM,64.9,53.6,67,30.15,10.0,Calm,Calm,-,N/A,,Clear,0,2013-09-04 09:35:00
4:55 AM,63.7,52.7,67,30.16,10.0,SSE,3.5,-,N/A,,Scattered Clouds,160,2013-09-04 09:55:00
5:15 AM,64.9,52.5,64,30.16,10.0,SE,4.6,-,N/A,,Scattered Clouds,130,2013-09-04 10:15:00
5:35 AM,63.3,52.3,67,30.16,10.0,Calm,Calm,-,N/A,,Scattered Clouds,0,2013-09-04 10:35:00
5:55 AM,61.2,52.3,73,30.16,10.0,Calm,Calm,-,N/A,,Scattered Clouds,0,2013-09-04 10:55:00
6:15 AM,61.2,52.0,72,30.17,10.0,West,3.5,-,N/A,,Clear,270,2013-09-04 11:15:00
6:35 AM,59.9,52.3,76,30.17,10.0,West,4.6,-,N/A,,Clear,260,2013-09-04 11:35:00
6:55 AM,60.3,52.7,76,30.18,10.0,Calm,Calm,-,N/A,,Clear,0,2013-09-04 11:55:00
7:15 AM,61.0,52.9,75,30.18,10.0,Calm,Calm,-,N/A,,Clear,0,2013-09-04 12:15:00
7:35 AM,62.6,52.7,70,30.18,10.0,Calm,Calm,-,N/A,,Clear,0,2013-09-04 12:35:00
7:55 AM,61.5,52.7,73,30.18,10.0,Calm,Calm,-,N/A,,Clear,0,2013-09-04 12:55:00
8:15 AM,64.0,53.8,69,30.18,10.0,Calm,Calm,-,N/A,,Clear,0,2013-09-04 13:15:00
8:35 AM,70.0,55.8,61,30.18,10.0,Calm,Calm,-,N/A,,Clear,0,2013-09-04 13:35:00
8:55 AM,71.1,53.1,53,30.19,10.0,Calm,Calm,-,N/A,,Clear,0,2013-09-04 13:55:00
9:15 AM,75.2,53.2,46,30.19,10.0,Calm,Calm,-,N/A,,Scattered Clouds,0,2013-09-04 14:15:00
9:35 AM,75.2,50.7,42,30.20,10.0,Calm,Calm,-,N/A,,Scattered Clouds,0,2013-09-04 14:35:00
9:55 AM,77.4,53.1,43,30.20,10.0,SE,3.5,-,N/A,,Scattered Clouds,130,2013-09-04 14:55:00
10:15 AM,77.5,52.5,42,30.21,10.0,Calm,Calm,-,N/A,,Scattered Clouds,0,2013-09-04 15:15:00
10:35 AM,80.1,53.8,40,30.21,10.0,SSE,3.5,-,N/A,,Clear,150,2013-09-04 15:35:00
10:55 AM,80.6,53.1,38,30.21,10.0,SSW,3.5,-,N/A,,Clear,200,2013-09-04 15:55:00
11:15 AM,83.1,54.5,37,30.21,10.0,Calm,Calm,-,N/A,,Clear,0,2013-09-04 16:15:00
11:35 AM,83.7,54.7,37,30.21,10.0,Calm,Calm,-,N/A,,Clear,0,2013-09-04 16:35:00
11:55 AM,84.9,54.5,35,30.21,10.0,Calm,Calm,-,N/A,,Clear,0,2013-09-04 16:55:00
12:15 PM,89.4,55.9,32,30.20,10.0,Calm,Calm,-,N/A,,Clear,0,2013-09-04 17:15:00
12:35 PM,90.1,53.8,29,30.20,10.0,South,6.9,-,N/A,,Clear,170,2013-09-04 17:35:00
12:55 PM,90.1,54.5,30,30.20,10.0,South,3.5,-,N/A,,Clear,170,2013-09-04 17:55:00
1:15 PM,90.1,53.6,29,30.19,10.0,Calm,Calm,-,N/A,,Clear,0,2013-09-04 18:15:00
1:35 PM,90.1,53.4,29,30.18,10.0,WNW,3.5,-,N/A,,Clear,290,2013-09-04 18:35:00
1:55 PM,94.6,54.0,25,30.18,10.0,SSE,8.1,-,N/A,,Clear,160,2013-09-04 18:55:00
2:15 PM,91.2,52.0,26,30.18,10.0,NNE,5.8,-,N/A,,Clear,30,2013-09-04 19:15:00
2:35 PM,93.4,52.9,25,30.17,10.0,NE,10.4,-,N/A,,Clear,50,2013-09-04 19:35:00
2:55 PM,91.8,51.6,25,30.16,10.0,Calm,Calm,-,N/A,,Clear,0,2013-09-04 19:55:00
3:15 PM,94.1,51.8,24,30.16,10.0,South,3.5,-,N/A,,Clear,180,2013-09-04 20:15:00
3:35 PM,94.1,51.8,24,30.16,10.0,ESE,4.6,-,N/A,,Clear,110,2013-09-04 20:35:00
3:55 PM,92.3,51.1,24,30.15,10.0,NNE,5.8,-,N/A,,Clear,30,2013-09-04 20:55:00
4:15 PM,91.8,50.7,25,30.15,10.0,SSE,4.6,-,N/A,,Clear,150,2013-09-04 21:15:00
4:35 PM,90.3,49.6,25,30.13,10.0,SE,5.8,-,N/A,,Clear,130,2013-09-04 21:35:00
4:55 PM,93.6,50.5,23,30.13,10.0,Calm,Calm,-,N/A,,Clear,0,2013-09-04 21:55:00
5:15 PM,94.6,51.3,23,30.13,10.0,SE,8.1,-,N/A,,Clear,130,2013-09-04 22:15:00
5:35 PM,93.0,50.7,24,30.12,10.0,ESE,3.5,-,N/A,,Clear,110,2013-09-04 22:35:00
5:55 PM,92.7,47.3,21,30.12,10.0,East,6.9,-,N/A,,Clear,100,2013-09-04 22:55:00
6:15 PM,92.1,46.6,21,30.12,10.0,ESE,9.2,-,N/A,,Clear,110,2013-09-04 23:15:00
6:35 PM,90.5,46.0,21,30.12,10.0,ESE,6.9,-,N/A,,Clear,120,2013-09-04 23:35:00
6:55 PM,90.1,47.8,23,30.12,10.0,ESE,8.1,-,N/A,,Clear,110,2013-09-04 23:55:00
7:15 PM,90.1,50.9,26,30.12,10.0,ESE,6.9,-,N/A,,Clear,110,2013-09-05 00:15:00
7:35 PM,87.8,50.2,27,30.12,10.0,ESE,5.8,-,N/A,,Clear,120,2013-09-05 00:35:00
7:55 PM,84.0,49.3,30,30.13,10.0,SE,4.6,-,N/A,,Clear,130,2013-09-05 00:55:00
8:15 PM,81.5,49.5,33,30.13,10.0,ESE,4.6,-,N/A,,Clear,120,2013-09-05 01:15:00
8:35 PM,80.4,49.8,34,30.13,10.0,SE,8.1,-,N/A,,Clear,130,2013-09-05 01:35:00
8:55 PM,80.1,50.2,35,30.14,10.0,SE,6.9,-,N/A,,Clear,130,2013-09-05 01:55:00
9:15 PM,80.1,49.1,34,30.15,10.0,SE,8.1,-,N/A,,Clear,130,2013-09-05 02:15:00
9:35 PM,76.8,50.7,40,30.16,7.0,ESE,4.6,-,N/A,,Clear,120,2013-09-05 02:35:00
9:55 PM,75.4,48.7,39,30.17,10.0,SE,5.8,-,N/A,,Clear,140,2013-09-05 02:55:00
10:15 PM,75.2,51.3,43,30.18,10.0,ESE,4.6,-,N/A,,Clear,120,2013-09-05 03:15:00
10:35 PM,75.2,47.7,38,30.18,10.0,ESE,6.9,-,N/A,,Clear,120,2013-09-05 03:35:00
10:55 PM,75.2,50.9,42,30.18,10.0,ESE,6.9,-,N/A,,Clear,110,2013-09-05 03:55:00
11:15 PM,70.0,51.1,51,30.18,10.0,SE,5.8,-,N/A,,Clear,130,2013-09-05 04:15:00
11:35 PM,72.7,48.0,42,30.18,10.0,ESE,4.6,-,N/A,,Clear,110,2013-09-05 04:35:00
11:55 PM,70.0,49.1,47,30.18,10.0,SE,3.5,-,N/A,,Clear,140,2013-09-05 04:55:00